Weather Roundup
Issued by NWS Corpus Christi, TX

Home | Current Version | Previous Version | Text Only | Print | Product List | Glossary On
Versions: 1 2 3 4 5 6 7 8 9 10 11 12 13 14 15 16 17 18 19 20 21 22 23 24 25 26 27 28 29 30 31 32 33 34 35 36 37 38 39 40 41 42 43 44 45 46 47 48 49 50
000
ASUS44 KCRP 061610
HRRCRP

SOUTH TEXAS REGIONAL WEATHER ROUNDUP
NATIONAL WEATHER SERVICE CORPUS CHRISTI TX
1000 AM CST FRI MAR 06 2015


TXZ229>244-061700-
...CORPUS CHRISTI AREA OBSERVATIONS...

CITY           SKY/WX    TMP DP  RH WIND       PRES   REMARKS
CORPUS CHRISTI CLOUDY    43  24  47 NE15      30.62R
NAS CORPUS CHR CLOUDY    43  27  53 NE18      30.61R
ROCKPORT       PTSUNNY   43  24  47 NE13      30.62R
KINGSVILLE NAS CLOUDY    43  28  55 NE10      30.63R
ALICE          CLOUDY    43  26  51 NE9       30.63R
FALFURRIAS     CLOUDY    42  25  50 N8        30.63R
$$

...VICTORIA AREA OBSERVATIONS...

CITY           SKY/WX    TMP DP  RH WIND       PRES   REMARKS
VICTORIA       MOSUNNY   43  23  45 NE16      30.62S
BEEVILLE       FAIR      42  26  53 NE14      30.62R
PLEASANTON     SUNNY     41  24  50 E9        30.65R
SAN ANTONIO    MOSUNNY   40  22  48 E9        30.62R
$$

...LAREDO AREA OBSERVATIONS...

CITY           SKY/WX    TMP DP  RH WIND       PRES   REMARKS
LAREDO         CLOUDY    41  23  48 NE8       30.64R
COTULLA        CLOUDY    42  23  46 E10       30.64R
DEL RIO        SUNNY     42  22  44 SE9       30.58S
MCALLEN        CLOUDY    46  29  51 N12       30.61R
HEBBRONVILLE   CLOUDY   N/A N/A N/A NE8       30.61S
$$

...OTHER TEXAS OBSERVATIONS...

CITY           SKY/WX    TMP DP  RH WIND       PRES   REMARKS
BROWNSVILLE    LGT RAIN  47  36  65 N12       30.58R
HOUSTON        PTSUNNY   42  20  41 NE9G18    30.62R
COL. STATION   SUNNY     41  20  43 VRB5      30.63R
AUSTIN         MOSUNNY   41  23  48 NE7       30.62S
WACO           SUNNY     40  27  59 VRB3      30.62S
FORT WORTH     SUNNY     39  22  50 SW8       30.60R
WICHITA FALLS  SUNNY     40  24  53 SW14      30.54S WCI  32
LUBBOCK        MOSUNNY   37  25  61 SW15      30.44R WCI  28
EL PASO        MOSUNNY   42  22  44 CALM      30.41R
$$

...MARINE OBSERVATIONS...

STATION/POSITION TIME  SKY/WX   TEMP    WIND        PRES    VSBY  WAVE   SWELL
                                AIR SEA DIR/SP/G                  HT/PER HT/PER
                 (UTC)          (F)     (DEG/KT/KT) (MB)    (MI)  (FT/S) (FT/S)
PORT ARANSAS     1600            41 54   20/ 19/ 22 1036.0R
BUOY 90 E PORT A 1600            47 68   20/ 21/ 29 1034.1R         9/ 8
BUOY 45 SE BAFFI 1600            51 64   20/ 17/ 23 1034.0R         8/ 8   5/ 8
BUOY 200 E PT IS 1600            58 70   30/ 21/ 25 1030.1R        12/ 9
BUOY 15 E GALVES 1600            40 58   40/ 21/ 27 1034.7R         6/ 5
$$



USA.gov is the U.S. government's official web portal to all federal, state and local government web resources and services.